Yuma MCAS, AZ

4:14 AM MST on June 28, 2017 (GMT -0700)
Yuma Marine Corps Air Station

Weather History for KNYL - November, 2013

Change the Weather History Date:

Wednesday, November 13, 2013

  Actual Average Record
Temperature  
Mean Temperature 80 °F 67 °F  
Max Temperature 91 °F 79 °F 92 °F (1999)
Min Temperature 69 °F 55 °F 36 °F (1909)
Degree Days  
Heating Degree Days 0 1  
Month to date heating degree days 0 9  
Since 1 July heating degree days 0 11  
Cooling Degree Days 15 3  
Month to date cooling degree days 78 63  
Year to date cooling degree days 4778 4625  
Growing Degree Days 30 (Base 50)    
Moisture  
Dew Point 36 °F    
Average Humidity 24    
Maximum Humidity 37    
Minimum Humidity 11    
Precipitation  
Precipitation 0.00 in 0.01 in 1.20 in (1910)
Month to date precipitation 0.00 0.08  
Year to date precipitation 2.31 2.91  
Sea Level Pressure  
Sea Level Pressure 29.97 in    
Wind  
Wind Speed 7 mph (NNE)    
Max Wind Speed 20 mph    
Max Gust Speed 23 mph    
Visibility 10 miles    
Events      
T = Trace of Precipitation, MM = Missing Value Source: NWS Daily Summary

Daily Weather History Graph

Daily Weather History Graph

Search for Another Location

Airport or City:

Trip Planner

Search our weather history database for the weather conditions in past years. The results will help you decide how hot, cold, wet, or windy it might be!

Date:

Astronomy

Nov. 13, 2013 Rise Set
Actual Time 7:06 AM MST 5:38 PM MST
Civil Twilight 6:40 AM MST 6:04 PM MST
Nautical Twilight 6:11 AM MST 6:34 PM MST
Astronomical Twilight 5:41 AM MST 7:03 PM MST
Moon 3:17 PM MST (11/13) 3:16 AM MST (11/13)
Length of Visible Light 11h 23m
Length of Day
10h 31m
Waxing Gibbous, 85% of the Moon is Illuminated
Nov 13
Waxing Gibbous
Nov 17
Full
Nov 25
Last Quarter
Dec 2
New
Dec 9
First Quarter

Hourly Weather History & Observations

Time (MST) Temp. Dew Point Humidity Pressure Visibility Wind Dir Wind Speed Gust Speed Precip Events Conditions
12:57 AM 79.0 °F 21.0 °F 12% 30.02 in 10.0 mi North 10.4 mph - N/A   Clear
1:57 AM 73.9 °F 21.9 °F 14% 30.01 in 10.0 mi NNE 5.8 mph - N/A   Clear
2:57 AM 72.0 °F 25.0 °F 17% 30.01 in 10.0 mi Calm Calm - N/A   Clear
3:57 AM 70.0 °F 26.1 °F 19% 30.00 in 10.0 mi NNE 4.6 mph - N/A   Clear
4:57 AM 69.1 °F 26.1 °F 20% 29.99 in 10.0 mi NNE 10.4 mph - N/A   Clear
5:57 AM 73.9 °F 27.0 °F 18% 29.99 in 10.0 mi NNE 10.4 mph - N/A   Clear
6:57 AM 72.0 °F 34.0 °F 25% 29.99 in 10.0 mi NNE 12.7 mph - N/A   Partly Cloudy
7:57 AM 73.0 °F 36.0 °F 26% 30.00 in 10.0 mi NNE 13.8 mph - N/A   Partly Cloudy
8:57 AM 77.0 °F 37.9 °F 24% 30.03 in 10.0 mi NNE 11.5 mph - N/A   Clear
9:57 AM 82.0 °F 39.9 °F 22% 30.02 in 10.0 mi ENE 13.8 mph - N/A   Clear
10:57 AM 84.0 °F 39.0 °F 20% 30.03 in 10.0 mi ENE 13.8 mph - N/A   Clear
11:57 AM 84.9 °F 39.9 °F 20% 30.00 in 10.0 mi ENE 11.5 mph - N/A   Clear
12:57 PM 87.1 °F 39.0 °F 18% 29.96 in 10.0 mi ENE 10.4 mph - N/A   Clear
1:57 PM 88.0 °F 39.9 °F 18% 29.94 in 10.0 mi ENE 9.2 mph - N/A   Clear
2:57 PM 90.0 °F 41.0 °F 18% 29.93 in 10.0 mi ENE 8.1 mph - N/A   Clear
3:57 PM 91.0 °F 37.9 °F 15% 29.91 in 10.0 mi NE 8.1 mph - N/A   Clear
4:57 PM 89.1 °F 39.0 °F 17% 29.90 in 10.0 mi North 4.6 mph - N/A   Clear
5:57 PM 86.0 °F 39.0 °F 19% 29.90 in 10.0 mi Calm Calm - N/A   Clear
6:57 PM 80.1 °F 42.1 °F 26% 29.92 in 10.0 mi Calm Calm - N/A   Clear
7:57 PM 75.0 °F 41.0 °F 29% 29.91 in 10.0 mi WNW 3.5 mph - N/A   Clear
8:57 PM 73.0 °F 42.1 °F 33% 29.93 in 10.0 mi West 4.6 mph - N/A   Clear
9:57 PM 73.0 °F 42.1 °F 33% 29.94 in 10.0 mi Calm Calm - N/A   Clear
10:57 PM 70.0 °F 42.1 °F 36% 29.94 in 10.0 mi Calm Calm - N/A   Clear
11:57 PM 69.1 °F 43.0 °F 39% 29.93 in 10.0 mi NNE 3.5 mph - N/A   Clear